Location: Borotín
(49.5055°N, 14.6142°E)
Time: 12:14:31
(UTC+00:00)

USA 215 - Pass Details

Date: 27 May 2022
Orbit: 1099 x 1108 km, 123.0° (Epoch: 10 June)

Event Time Altitude Azimuth Distance (km) Brightness Sun altitude
Rises 01:16:08 0° 71° (ENE) 3,921 7.0 -12.9°
Reaches altitude 10° 01:18:41 10° 66° (ENE) 2,964 6.5 -12.7°
Maximum altitude 01:24:53 47° 355° (N) 1,428 4.3 -12.1°
Drops below altitude 10° 01:31:04 10° 284° (WNW) 2,968 5.3 -11.6°
Sets 01:33:39 0° 279° (W) 3,927 5.9 -11.3°
